Time,TemperatureF,DewpointF,PressureIn,WindDirection,WindDirectionDegrees,WindSpeedMPH,WindSpeedGustMPH,Humidity,HourlyPrecipIn,Conditions,Clouds,dailyrainin,SolarRadiationWatts/m^2,SoftwareType,DateUTC
2013-09-17 00:02:00,50.0,36.0,-100.00,WSW,237,2.0,5.0,57,0.00,,,0.00,0.800000,,2013-09-17 08:02:00,
2013-09-17 00:12:00,50.0,36.0,-100.00,WSW,237,2.0,5.0,57,0.00,,,0.00,0.800000,,2013-09-17 08:12:00,
2013-09-17 00:21:00,50.0,36.0,-100.00,WSW,237,2.0,5.0,57,0.00,,,0.00,0.800000,,2013-09-17 08:21:00,
2013-09-17 00:52:00,50.0,36.0,-100.00,NW,318,2.0,5.0,58,0.00,,,0.00,0.800000,,2013-09-17 08:52:00,
2013-09-17 01:02:00,50.0,36.0,-100.00,NW,318,2.0,5.0,58,0.00,,,0.00,0.800000,,2013-09-17 09:02:00,
2013-09-17 01:12:00,50.0,36.0,-100.00,NW,318,2.0,5.0,58,0.00,,,0.00,0.800000,,2013-09-17 09:12:00,
2013-09-17 01:22:00,50.0,36.0,-100.00,NW,318,2.0,5.0,58,0.00,,,0.00,0.800000,,2013-09-17 09:22:00,
2013-09-17 01:53:00,50.0,35.0,-100.00,SE,127,2.0,5.0,56,0.00,,,0.00,0.800000,,2013-09-17 09:53:00,
2013-09-17 02:03:00,50.0,35.0,-100.00,SE,127,2.0,5.0,56,0.00,,,0.00,0.800000,,2013-09-17 10:03:00,
2013-09-17 02:12:00,50.0,35.0,-100.00,SE,127,2.0,5.0,56,0.00,,,0.00,0.800000,,2013-09-17 10:12:00,
2013-09-17 02:23:00,50.0,35.0,-100.00,SE,127,2.0,5.0,56,0.00,,,0.00,0.800000,,2013-09-17 10:23:00,
2013-09-17 02:53:00,49.0,35.0,-100.00,SSE,148,1.0,6.0,58,0.00,,,-99.99,0.800000,,2013-09-17 10:53:00,
2013-09-17 03:03:00,49.0,35.0,-100.00,SSE,148,1.0,6.0,58,0.00,,,-99.99,0.800000,,2013-09-17 11:03:00,
2013-09-17 03:11:00,49.0,35.0,-100.00,SSE,148,1.0,6.0,58,0.00,,,-99.99,0.800000,,2013-09-17 11:11:00,
2013-09-17 03:22:00,49.0,35.0,-100.00,SSE,148,1.0,6.0,58,0.00,,,-99.99,0.800000,,2013-09-17 11:22:00,
2013-09-17 03:52:00,51.0,35.0,-100.00,WSW,254,4.0,5.0,55,0.00,,,0.00,0.800000,,2013-09-17 11:52:00,
2013-09-17 04:02:00,51.0,35.0,-100.00,WSW,254,4.0,5.0,55,0.00,,,0.00,0.800000,,2013-09-17 12:02:00,
2013-09-17 04:12:00,51.0,35.0,-100.00,WSW,254,4.0,5.0,55,0.00,,,0.00,0.800000,,2013-09-17 12:12:00,
2013-09-17 04:21:00,51.0,35.0,-100.00,WSW,254,4.0,5.0,55,0.00,,,0.00,0.800000,,2013-09-17 12:21:00,
2013-09-17 04:52:00,49.0,35.0,-100.00,SW,235,4.0,6.0,59,0.00,,,0.00,0.800000,,2013-09-17 12:52:00,
2013-09-17 05:02:00,49.0,35.0,-100.00,SW,235,4.0,6.0,59,0.00,,,0.00,0.800000,,2013-09-17 13:02:00,
2013-09-17 05:11:00,49.0,35.0,-100.00,SW,235,4.0,6.0,59,0.00,,,0.00,0.800000,,2013-09-17 13:11:00,
2013-09-17 05:22:00,49.0,35.0,-100.00,SW,235,4.0,6.0,59,0.00,,,0.00,0.800000,,2013-09-17 13:22:00,
2013-09-17 05:52:00,48.0,35.0,-100.00,South,188,2.0,6.0,61,0.00,,,0.00,0.800000,,2013-09-17 13:52:00,
2013-09-17 06:02:00,48.0,35.0,-100.00,South,188,2.0,6.0,61,0.00,,,0.00,0.800000,,2013-09-17 14:02:00,
2013-09-17 06:11:00,48.0,35.0,-100.00,South,188,2.0,6.0,61,0.00,,,0.00,0.800000,,2013-09-17 14:11:00,
2013-09-17 06:21:00,48.0,35.0,-100.00,South,188,2.0,6.0,61,0.00,,,0.00,0.800000,,2013-09-17 14:21:00,
2013-09-17 06:52:00,48.0,35.0,-100.00,ENE,59,3.0,4.0,62,0.00,,,0.00,0.800000,,2013-09-17 14:52:00,
2013-09-17 07:02:00,48.0,35.0,-100.00,ENE,59,3.0,4.0,62,0.00,,,0.00,0.800000,,2013-09-17 15:02:00,
2013-09-17 07:11:00,48.0,35.0,-100.00,ENE,59,3.0,4.0,62,0.00,,,0.00,0.800000,,2013-09-17 15:11:00,
2013-09-17 07:22:00,48.0,35.0,-100.00,ENE,59,3.0,4.0,62,0.00,,,0.00,0.800000,,2013-09-17 15:22:00,
2013-09-17 07:53:00,48.0,36.0,-100.00,NE,47,4.0,4.0,63,0.00,,,0.00,1.000000,,2013-09-17 15:53:00,
2013-09-17 08:03:00,48.0,36.0,-100.00,NE,47,4.0,4.0,63,0.00,,,0.00,1.000000,,2013-09-17 16:03:00,
2013-09-17 08:12:00,48.0,36.0,-100.00,NE,47,4.0,4.0,63,0.00,,,0.00,1.000000,,2013-09-17 16:12:00,
2013-09-17 08:23:00,48.0,36.0,-100.00,NE,47,4.0,4.0,63,0.00,,,0.00,1.000000,,2013-09-17 16:23:00,
2013-09-17 08:54:00,48.0,35.0,-100.00,North,5,3.0,5.0,62,0.00,,,0.00,12.400000,,2013-09-17 16:54:00,
2013-09-17 09:03:00,48.0,35.0,-100.00,North,5,3.0,5.0,62,0.00,,,0.00,12.400000,,2013-09-17 17:03:00,
2013-09-17 09:12:00,48.0,35.0,-100.00,North,5,3.0,5.0,62,0.00,,,0.00,12.400000,,2013-09-17 17:12:00,
2013-09-17 09:23:00,48.0,35.0,-100.00,North,5,3.0,5.0,62,0.00,,,0.00,12.400000,,2013-09-17 17:23:00,
2013-09-17 09:53:00,49.0,37.0,-100.00,NW,312,2.0,5.0,64,0.00,,,0.00,57.900002,,2013-09-17 17:53:00,
2013-09-17 10:02:00,49.0,37.0,-100.00,NW,312,2.0,5.0,64,0.00,,,0.00,57.900002,,2013-09-17 18:02:00,
2013-09-17 10:12:00,49.0,37.0,-100.00,NW,312,2.0,5.0,64,0.00,,,0.00,57.900002,,2013-09-17 18:12:00,
2013-09-17 10:21:00,49.0,37.0,-100.00,NW,312,2.0,5.0,64,0.00,,,0.00,57.900002,,2013-09-17 18:21:00,
2013-09-17 10:52:00,49.0,39.0,-100.00,NW,310,0.0,5.0,68,0.00,,,0.00,68.099998,,2013-09-17 18:52:00,
2013-09-17 11:02:00,49.0,39.0,-100.00,NW,310,0.0,5.0,68,0.00,,,0.00,68.099998,,2013-09-17 19:02:00,
2013-09-17 11:11:00,49.0,39.0,-100.00,NW,310,0.0,5.0,68,0.00,,,0.00,68.099998,,2013-09-17 19:11:00,
2013-09-17 11:21:00,49.0,39.0,-100.00,NW,310,0.0,5.0,68,0.00,,,0.00,68.099998,,2013-09-17 19:21:00,
2013-09-17 11:52:00,50.0,39.0,-100.00,WNW,291,2.0,3.0,66,0.00,,,0.00,109.900002,,2013-09-17 19:52:00,
2013-09-17 12:02:00,50.0,39.0,-100.00,WNW,291,2.0,3.0,66,0.00,,,0.00,109.900002,,2013-09-17 20:02:00,
2013-09-17 12:11:00,50.0,39.0,-100.00,WNW,291,2.0,3.0,66,0.00,,,0.00,109.900002,,2013-09-17 20:11:00,
2013-09-17 12:22:00,50.0,39.0,-100.00,WNW,291,2.0,3.0,66,0.00,,,0.00,109.900002,,2013-09-17 20:22:00,
2013-09-17 12:52:00,53.0,42.0,-100.00,North,3,2.0,3.0,67,0.00,,,0.00,217.300003,,2013-09-17 20:52:00,
2013-09-17 13:01:00,53.0,42.0,-100.00,North,3,2.0,3.0,67,0.00,,,0.00,217.300003,,2013-09-17 21:01:00,
2013-09-17 13:12:00,53.0,42.0,-100.00,North,3,2.0,3.0,67,0.00,,,0.00,217.300003,,2013-09-17 21:12:00,
2013-09-17 13:22:00,53.0,42.0,-100.00,North,3,2.0,3.0,67,0.00,,,0.00,217.300003,,2013-09-17 21:22:00,
2013-09-17 13:54:00,53.0,42.0,-100.00,WNW,292,2.0,4.0,68,0.00,,,-99.99,195.800003,,2013-09-17 21:54:00,
2013-09-17 14:04:00,53.0,42.0,-100.00,WNW,292,2.0,4.0,68,0.00,,,-99.99,195.800003,,2013-09-17 22:04:00,
2013-09-17 14:13:00,53.0,42.0,-100.00,WNW,292,2.0,4.0,68,0.00,,,-99.99,195.800003,,2013-09-17 22:13:00,
2013-09-17 14:24:00,53.0,42.0,-100.00,WNW,292,2.0,4.0,68,0.00,,,-99.99,195.800003,,2013-09-17 22:24:00,
2013-09-17 14:53:00,53.0,43.0,-100.00,ESE,116,2.0,3.0,69,0.00,,,0.00,226.000000,,2013-09-17 22:53:00,
2013-09-17 15:03:00,53.0,43.0,-100.00,ESE,116,2.0,3.0,69,0.00,,,0.00,226.000000,,2013-09-17 23:03:00,
2013-09-17 15:12:00,53.0,43.0,-100.00,ESE,116,2.0,3.0,69,0.00,,,0.00,226.000000,,2013-09-17 23:12:00,
2013-09-17 15:21:00,53.0,43.0,-100.00,ESE,116,2.0,3.0,69,0.00,,,0.00,226.000000,,2013-09-17 23:21:00,
2013-09-17 15:52:00,54.0,44.0,-100.00,East,86,1.0,4.0,69,0.00,,,0.00,228.699997,,2013-09-17 23:52:00,
2013-09-17 16:02:00,54.0,44.0,-100.00,East,86,1.0,4.0,69,0.00,,,0.00,228.699997,,2013-09-18 00:02:00,
2013-09-17 16:11:00,54.0,44.0,-100.00,East,86,1.0,4.0,69,0.00,,,0.00,228.699997,,2013-09-18 00:11:00,
2013-09-17 16:22:00,54.0,44.0,-100.00,East,86,1.0,4.0,69,0.00,,,0.00,228.699997,,2013-09-18 00:22:00,
2013-09-17 16:52:00,54.0,41.0,-100.00,SSE,156,2.0,4.0,60,0.00,,,0.00,245.600006,,2013-09-18 00:52:00,
2013-09-17 17:01:00,54.0,41.0,-100.00,SSE,156,2.0,4.0,60,0.00,,,0.00,245.600006,,2013-09-18 01:01:00,
2013-09-17 17:11:00,54.0,41.0,-100.00,SSE,156,2.0,4.0,60,0.00,,,0.00,245.600006,,2013-09-18 01:11:00,
2013-09-17 17:21:00,54.0,41.0,-100.00,SSE,156,2.0,4.0,60,0.00,,,0.00,245.600006,,2013-09-18 01:21:00,
2013-09-17 17:52:00,54.0,41.0,-100.00,ESE,108,2.0,4.0,60,0.00,,,0.00,232.699997,,2013-09-18 01:52:00,
2013-09-17 18:03:00,54.0,41.0,-100.00,ESE,108,2.0,4.0,60,0.00,,,0.00,232.699997,,2013-09-18 02:03:00,
2013-09-17 18:11:00,54.0,41.0,-100.00,ESE,108,2.0,4.0,60,0.00,,,0.00,232.699997,,2013-09-18 02:11:00,
2013-09-17 18:22:00,54.0,41.0,-100.00,ESE,108,2.0,4.0,60,0.00,,,0.00,232.699997,,2013-09-18 02:22:00,
2013-09-17 18:52:00,52.0,43.0,-100.00,SE,129,0.0,4.0,72,0.00,,,0.00,165.399994,,2013-09-18 02:52:00,
2013-09-17 19:02:00,52.0,43.0,-100.00,SE,129,0.0,4.0,72,0.00,,,0.00,165.399994,,2013-09-18 03:02:00,
2013-09-17 19:11:00,52.0,43.0,-100.00,SE,129,0.0,4.0,72,0.00,,,0.00,165.399994,,2013-09-18 03:11:00,
2013-09-17 19:23:00,52.0,43.0,-100.00,SE,129,0.0,4.0,72,0.00,,,0.00,165.399994,,2013-09-18 03:23:00,
2013-09-17 19:55:00,50.0,40.0,-100.00,NE,38,2.0,3.0,69,0.00,,,0.00,58.299999,,2013-09-18 03:55:00,
2013-09-17 20:04:00,50.0,40.0,-100.00,NE,38,2.0,3.0,69,0.00,,,0.00,58.299999,,2013-09-18 04:04:00,
2013-09-17 20:14:00,50.0,40.0,-100.00,NE,38,2.0,3.0,69,0.00,,,0.00,58.299999,,2013-09-18 04:14:00,
2013-09-17 20:24:00,50.0,40.0,-100.00,NE,38,2.0,3.0,69,0.00,,,0.00,58.299999,,2013-09-18 04:24:00,
2013-09-17 20:54:00,49.0,39.0,-100.00,NNE,14,4.0,6.0,68,0.00,,,0.00,10.000000,,2013-09-18 04:54:00,
2013-09-17 21:04:00,49.0,39.0,-100.00,NNE,14,4.0,6.0,68,0.00,,,0.00,10.000000,,2013-09-18 05:04:00,
2013-09-17 21:12:00,49.0,39.0,-100.00,NNE,14,4.0,6.0,68,0.00,,,0.00,10.000000,,2013-09-18 05:12:00,
2013-09-17 21:23:00,49.0,39.0,-100.00,NNE,14,4.0,6.0,68,0.00,,,0.00,10.000000,,2013-09-18 05:23:00,
2013-09-17 21:53:00,49.0,38.0,-100.00,WSW,248,2.0,6.0,65,0.00,,,0.00,0.900000,,2013-09-18 05:53:00,
2013-09-17 22:02:00,49.0,38.0,-100.00,WSW,248,2.0,6.0,65,0.00,,,0.00,0.900000,,2013-09-18 06:02:00,
2013-09-17 22:12:00,49.0,38.0,-100.00,WSW,248,2.0,6.0,65,0.00,,,0.00,0.900000,,2013-09-18 06:12:00,
2013-09-17 22:22:00,49.0,38.0,-100.00,WSW,248,2.0,6.0,65,0.00,,,0.00,0.900000,,2013-09-18 06:22:00,
2013-09-17 22:52:00,49.0,40.0,-100.00,East,97,2.0,2.0,71,0.00,,,0.00,0.800000,,2013-09-18 06:52:00,
2013-09-17 23:01:00,49.0,40.0,-100.00,East,97,2.0,2.0,71,0.00,,,0.00,0.800000,,2013-09-18 07:01:00,
2013-09-17 23:12:00,49.0,40.0,-100.00,East,97,2.0,2.0,71,0.00,,,0.00,0.800000,,2013-09-18 07:12:00,
2013-09-17 23:22:00,49.0,40.0,-100.00,East,97,2.0,2.0,71,0.00,,,0.00,0.800000,,2013-09-18 07:22:00,
2013-09-17 23:52:00,48.0,39.0,-100.00,ESE,120,3.0,3.0,71,0.00,,,0.00,0.800000,,2013-09-18 07:52:00,